LOB4223 KACY-KBGR

Flight info

Callsign LOB4223
Flight time 1h 19m
Altitude 35000
Route BRIGS MAD PEASE ENE
Aircraft B738/M-SDE2E3FGHIRWXY/LB1

Departure

Time 2026-04-28 10:24
Airport Atlantic City International Airport (KACY)

Arrival

Time 2026-04-28 11:44
Airport Bangor International Airport (KBGR)
Time Latitude Longitude Altitude Speed Heading
2026-04-28 09:53 39.45115 -74.56757 77 ft 0 kts 217°
2026-04-28 10:14 39.45122 -74.56750 70 ft 4 kts 231°
2026-04-28 10:15 39.45125 -74.56725 70 ft 4 kts 297°
2026-04-28 10:15 39.45118 -74.56707 66 ft 1 kts 298°
2026-04-28 10:19 39.45120 -74.56711 69 ft 2 kts 298°
2026-04-28 10:19 39.45130 -74.56736 72 ft 5 kts 298°
2026-04-28 10:20 39.45152 -74.56785 73 ft 8 kts 309°
2026-04-28 10:20 39.45208 -74.56805 75 ft 10 kts 16°
2026-04-28 10:20 39.45274 -74.56758 76 ft 11 kts 41°
2026-04-28 10:20 39.45268 -74.56668 68 ft 11 kts 117°
2026-04-28 10:21 39.45234 -74.56585 72 ft 10 kts 118°
2026-04-28 10:21 39.45200 -74.56504 72 ft 10 kts 118°
2026-04-28 10:21 39.45167 -74.56425 73 ft 10 kts 118°
2026-04-28 10:21 39.45136 -74.56348 77 ft 10 kts 116°
2026-04-28 10:22 39.45106 -74.56273 75 ft 9 kts 117°
2026-04-28 10:22 39.45077 -74.56200 72 ft 9 kts 120°
2026-04-28 10:22 39.45046 -74.56130 77 ft 9 kts 111°
2026-04-28 10:22 39.45068 -74.56064 76 ft 9 kts 37°
2026-04-28 10:23 39.45118 -74.56025 75 ft 8 kts 22°
2026-04-28 10:23 39.45166 -74.56051 76 ft 8 kts 302°
2026-04-28 10:23 39.45205 -74.56143 67 ft 22 kts 298°
2026-04-28 10:23 39.45391 -74.56595 74 ft 92 kts 298°
2026-04-28 10:24 39.45822 -74.57639 86 ft 169 kts 297°
2026-04-28 10:24 39.46428 -74.59175 577 ft 202 kts 295°
2026-04-28 10:24 39.47033 -74.60860 1492 ft 211 kts 296°
2026-04-28 10:24 39.47816 -74.62509 2384 ft 220 kts 309°
2026-04-28 10:25 39.49066 -74.63799 2674 ft 247 kts 340°
2026-04-28 10:25 39.50798 -74.63922 3135 ft 255 kts 19°
2026-04-28 10:25 39.52204 -74.62648 3921 ft 250 kts 58°
2026-04-28 10:25 39.52737 -74.60584 4936 ft 238 kts 86°
2026-04-28 10:26 39.52695 -74.58421 5616 ft 247 kts 94°
2026-04-28 10:26 39.52608 -74.56131 6116 ft 261 kts 92°
2026-04-28 10:26 39.52478 -74.53767 6881 ft 262 kts 97°
2026-04-28 10:26 39.52194 -74.51455 7752 ft 260 kts 101°
2026-04-28 10:27 39.51575 -74.49208 8303 ft 271 kts 114°
2026-04-28 10:27 39.50736 -74.46985 8913 ft 279 kts 114°
2026-04-28 10:27 39.50058 -74.44605 9561 ft 284 kts 103°
2026-04-28 10:27 39.49686 -74.42107 10205 ft 289 kts 94°
2026-04-28 10:28 39.49521 -74.39490 10813 ft 293 kts 90°
2026-04-28 10:28 39.49596 -74.36837 11364 ft 301 kts 82°
2026-04-28 10:28 39.49862 -74.34008 11534 ft 324 kts 80°
2026-04-28 10:29 39.50564 -74.27916 12006 ft 359 kts 78°
2026-04-28 10:29 39.50980 -74.24695 12563 ft 365 kts 78°
2026-04-28 10:29 39.51270 -74.22498 13006 ft 368 kts 78°
2026-04-28 10:29 39.51851 -74.18144 13890 ft 373 kts 77°
2026-04-28 10:30 39.52673 -74.14973 14461 ft 373 kts 57°
2026-04-28 10:30 39.54302 -74.12396 15106 ft 370 kts 37°
2026-04-28 10:30 39.56425 -74.10541 15785 ft 369 kts 28°
2026-04-28 10:30 39.58636 -74.08819 16421 ft 373 kts 28°
2026-04-28 10:31 39.60887 -74.07101 17026 ft 377 kts 27°
2026-04-28 10:31 39.62421 -74.05930 17447 ft 380 kts 27°
2026-04-28 10:31 39.64702 -74.04180 18069 ft 383 kts 28°
2026-04-28 10:31 39.66973 -74.02423 18661 ft 387 kts 28°
2026-04-28 10:32 39.69290 -74.00618 19205 ft 390 kts 28°
2026-04-28 10:32 39.71643 -73.98774 19861 ft 389 kts 27°
2026-04-28 10:32 39.73926 -73.96977 20484 ft 390 kts 27°
2026-04-28 10:32 39.76261 -73.95137 20997 ft 394 kts 27°
2026-04-28 10:33 39.78613 -73.93281 21501 ft 397 kts 27°
2026-04-28 10:33 39.80981 -73.91409 22008 ft 400 kts 27°
2026-04-28 10:33 39.83373 -73.89516 22528 ft 403 kts 27°
2026-04-28 10:33 39.85775 -73.87614 23034 ft 405 kts 27°
2026-04-28 10:34 39.88188 -73.85701 23526 ft 408 kts 27°
2026-04-28 10:34 39.90615 -73.83775 23971 ft 411 kts 27°
2026-04-28 10:34 39.93073 -73.81824 24370 ft 413 kts 27°
2026-04-28 10:34 39.95534 -73.79868 24780 ft 415 kts 27°
2026-04-28 10:35 39.98005 -73.77902 25174 ft 417 kts 26°
2026-04-28 10:35 40.00489 -73.75925 25577 ft 419 kts 26°
2026-04-28 10:35 40.02986 -73.73935 25962 ft 421 kts 26°
2026-04-28 10:35 40.05492 -73.71936 26336 ft 424 kts 26°
2026-04-28 10:36 40.08019 -73.69920 26695 ft 426 kts 26°
2026-04-28 10:36 40.10549 -73.67899 27049 ft 428 kts 26°
2026-04-28 10:36 40.13097 -73.65861 27394 ft 430 kts 26°
2026-04-28 10:36 40.15655 -73.63815 27775 ft 432 kts 26°
2026-04-28 10:37 40.18222 -73.61758 28186 ft 432 kts 26°
2026-04-28 10:37 40.20794 -73.59696 28473 ft 436 kts 26°
2026-04-28 10:37 40.23386 -73.57616 28749 ft 439 kts 26°
2026-04-28 10:37 40.25988 -73.55527 29057 ft 441 kts 25°
2026-04-28 10:38 40.28611 -73.53418 29378 ft 442 kts 25°
2026-04-28 10:38 40.31237 -73.51306 29684 ft 444 kts 25°
2026-04-28 10:38 40.33873 -73.49182 30002 ft 446 kts 25°
2026-04-28 10:38 40.36515 -73.47050 30410 ft 444 kts 25°
2026-04-28 10:39 40.39140 -73.44930 30820 ft 442 kts 25°
2026-04-28 10:39 40.41751 -73.42817 31218 ft 440 kts 25°
2026-04-28 10:39 40.44349 -73.40716 31593 ft 438 kts 25°
2026-04-28 10:39 40.46945 -73.38614 31955 ft 437 kts 25°
2026-04-28 10:40 40.49526 -73.36524 32325 ft 435 kts 24°
2026-04-28 10:40 40.52097 -73.34439 32704 ft 433 kts 24°
2026-04-28 10:40 40.54655 -73.32364 33070 ft 432 kts 24°
2026-04-28 10:40 40.57208 -73.30291 33420 ft 431 kts 24°
2026-04-28 10:41 40.59745 -73.28227 33977 ft 424 kts 24°
2026-04-28 10:41 40.62223 -73.26205 34517 ft 418 kts 24°
2026-04-28 10:41 40.64697 -73.24190 34766 ft 418 kts 24°
2026-04-28 10:41 40.67176 -73.22175 34894 ft 421 kts 24°
2026-04-28 10:42 40.69670 -73.20146 35087 ft 422 kts 24°
2026-04-28 10:42 40.72162 -73.18113 35380 ft 420 kts 24°
2026-04-28 10:42 40.74636 -73.16089 35696 ft 418 kts 24°
2026-04-28 10:42 40.77102 -73.14072 35933 ft 417 kts 24°
2026-04-28 10:43 40.79574 -73.12049 36132 ft 418 kts 24°
2026-04-28 10:43 40.82068 -73.10006 36358 ft 417 kts 24°
2026-04-28 10:43 40.84501 -73.08011 36609 ft 416 kts 24°
2026-04-28 10:43 40.86955 -73.05995 36879 ft 414 kts 24°
2026-04-28 10:44 40.89400 -73.03986 37109 ft 414 kts 24°
2026-04-28 10:44 40.91844 -73.01977 37239 ft 415 kts 24°
2026-04-28 10:44 40.94311 -72.99950 37245 ft 418 kts 24°
2026-04-28 10:45 40.99196 -72.95924 37247 ft 415 kts 24°
2026-04-28 10:45 41.04018 -72.91754 37262 ft 411 kts 26°
2026-04-28 10:46 41.08859 -72.87914 37259 ft 403 kts 24°
2026-04-28 10:46 41.13619 -72.84020 37254 ft 401 kts 25°
2026-04-28 10:47 41.18346 -72.80081 37260 ft 404 kts 25°
2026-04-28 10:47 41.23152 -72.76080 37260 ft 411 kts 25°
2026-04-28 10:48 41.28008 -72.72033 37251 ft 413 kts 25°
2026-04-28 10:48 41.32847 -72.67841 37247 ft 419 kts 29°
2026-04-28 10:49 41.37504 -72.63142 37234 ft 421 kts 30°
2026-04-28 10:49 41.42122 -72.58372 37250 ft 420 kts 31°
2026-04-28 10:50 41.46736 -72.53628 37238 ft 417 kts 30°
2026-04-28 10:50 41.51327 -72.48927 37249 ft 415 kts 30°
2026-04-28 10:51 41.55892 -72.44258 37254 ft 412 kts 30°
2026-04-28 10:51 41.60435 -72.39605 37247 ft 410 kts 30°
2026-04-28 10:52 41.64956 -72.34967 37272 ft 409 kts 30°
2026-04-28 10:52 41.69462 -72.30336 37257 ft 408 kts 30°
2026-04-28 10:53 41.73958 -72.25707 37269 ft 408 kts 30°
2026-04-28 10:53 41.78454 -72.21069 37274 ft 408 kts 30°
2026-04-28 10:54 41.82949 -72.16423 37259 ft 408 kts 30°
2026-04-28 10:54 41.87438 -72.11774 37258 ft 408 kts 30°
2026-04-28 10:55 41.91919 -72.07125 37261 ft 407 kts 30°
2026-04-28 10:55 41.96369 -72.02500 37263 ft 407 kts 30°
2026-04-28 10:56 42.00839 -71.97846 37279 ft 406 kts 30°
2026-04-28 10:56 42.05306 -71.93186 37263 ft 406 kts 30°
2026-04-28 10:57 42.09772 -71.88519 37276 ft 406 kts 30°
2026-04-28 10:57 42.14230 -71.83852 37273 ft 405 kts 30°
2026-04-28 10:58 42.18678 -71.79185 37268 ft 404 kts 30°
2026-04-28 10:58 42.23111 -71.74527 37248 ft 403 kts 30°
2026-04-28 10:59 42.27528 -71.69877 37254 ft 402 kts 30°
2026-04-28 10:59 42.31933 -71.65232 37258 ft 401 kts 30°
2026-04-28 11:00 42.36328 -71.60589 37271 ft 401 kts 30°
2026-04-28 11:00 42.40715 -71.55944 37302 ft 400 kts 30°
2026-04-28 11:01 42.45094 -71.51302 37286 ft 400 kts 30°
2026-04-28 11:01 42.49469 -71.46654 37271 ft 400 kts 30°
2026-04-28 11:02 42.53843 -71.42000 37276 ft 399 kts 30°
2026-04-28 11:02 42.58205 -71.37348 37279 ft 399 kts 30°
2026-04-28 11:03 42.62568 -71.32688 37279 ft 399 kts 30°
2026-04-28 11:03 42.66933 -71.28017 37287 ft 399 kts 30°
2026-04-28 11:04 42.71296 -71.23340 37301 ft 400 kts 30°
2026-04-28 11:04 42.75663 -71.18649 37306 ft 400 kts 30°
2026-04-28 11:05 42.80026 -71.13954 37304 ft 400 kts 30°
2026-04-28 11:05 42.84368 -71.09273 37311 ft 401 kts 30°
2026-04-28 11:06 42.88751 -71.04538 37299 ft 401 kts 30°
2026-04-28 11:06 42.93100 -70.99831 37285 ft 402 kts 30°
2026-04-28 11:07 42.97503 -70.95057 37276 ft 402 kts 30°
2026-04-28 11:07 43.01884 -70.90297 37280 ft 403 kts 30°
2026-04-28 11:08 43.06271 -70.85524 37280 ft 403 kts 30°
2026-04-28 11:08 43.10919 -70.81503 37283 ft 389 kts 18°
2026-04-28 11:09 43.15834 -70.78442 37279 ft 388 kts 18°
2026-04-28 11:09 43.20727 -70.75368 37280 ft 387 kts 18°
2026-04-28 11:09 43.23171 -70.73819 36991 ft 384 kts 18°
2026-04-28 11:10 43.25551 -70.72297 36698 ft 372 kts 18°
2026-04-28 11:10 43.27856 -70.70822 36354 ft 359 kts 18°
2026-04-28 11:10 43.30093 -70.69392 35943 ft 351 kts 17°
2026-04-28 11:10 43.32281 -70.67996 35582 ft 343 kts 17°
2026-04-28 11:11 43.34442 -70.66622 35196 ft 344 kts 17°
2026-04-28 11:11 43.36636 -70.65227 34832 ft 353 kts 17°
2026-04-28 11:11 43.38900 -70.63785 34427 ft 364 kts 17°
2026-04-28 11:11 43.41154 -70.62095 33941 ft 372 kts 26°
2026-04-28 11:12 43.43209 -70.59963 33482 ft 369 kts 31°
2026-04-28 11:12 43.45042 -70.57486 33016 ft 370 kts 39°
2026-04-28 11:12 43.46690 -70.54804 32633 ft 363 kts 40°
2026-04-28 11:12 43.48282 -70.52151 32246 ft 356 kts 40°
2026-04-28 11:13 43.49843 -70.49539 31891 ft 351 kts 40°
2026-04-28 11:13 43.51409 -70.46933 31583 ft 357 kts 41°
2026-04-28 11:13 43.53017 -70.44275 31234 ft 367 kts 41°
2026-04-28 11:13 43.54648 -70.41576 30846 ft 367 kts 41°
2026-04-28 11:14 43.56253 -70.38902 30465 ft 358 kts 42°
2026-04-28 11:14 43.57819 -70.36284 30095 ft 350 kts 42°
2026-04-28 11:14 43.59329 -70.33734 29766 ft 342 kts 42°
2026-04-28 11:14 43.60822 -70.31196 29362 ft 336 kts 46°
2026-04-28 11:15 43.62152 -70.28566 28959 ft 329 kts 42°
2026-04-28 11:15 43.63735 -70.26335 28675 ft 327 kts 35°
2026-04-28 11:15 43.65475 -70.24299 28418 ft 332 kts 29°
2026-04-28 11:15 43.67426 -70.22539 28188 ft 334 kts 27°
2026-04-28 11:16 43.69393 -70.20851 27910 ft 331 kts 26°
2026-04-28 11:16 43.71341 -70.19192 27642 ft 328 kts 26°
2026-04-28 11:16 43.73281 -70.17537 27383 ft 326 kts 27°
2026-04-28 11:16 43.75200 -70.15894 27124 ft 323 kts 27°
2026-04-28 11:17 43.77101 -70.14261 26873 ft 321 kts 27°
2026-04-28 11:17 43.78994 -70.12629 26636 ft 319 kts 27°
2026-04-28 11:17 43.80870 -70.11008 26386 ft 317 kts 27°
2026-04-28 11:17 43.82738 -70.09391 26152 ft 316 kts 28°
2026-04-28 11:18 43.84595 -70.07782 25909 ft 314 kts 28°
2026-04-28 11:18 43.86443 -70.06179 25665 ft 312 kts 28°
2026-04-28 11:18 43.87661 -70.05122 25507 ft 311 kts 28°
2026-04-28 11:18 43.89489 -70.03533 25267 ft 310 kts 28°
2026-04-28 11:19 43.91308 -70.01950 25031 ft 308 kts 28°
2026-04-28 11:19 43.93117 -70.00376 24799 ft 307 kts 28°
2026-04-28 11:19 43.94926 -69.98800 24566 ft 306 kts 29°
2026-04-28 11:19 43.96721 -69.97235 24334 ft 304 kts 29°
2026-04-28 11:20 43.98514 -69.95671 24110 ft 303 kts 29°
2026-04-28 11:20 44.00274 -69.94133 23847 ft 294 kts 30°
2026-04-28 11:20 44.01984 -69.92639 23499 ft 287 kts 30°
2026-04-28 11:20 44.03657 -69.91175 23159 ft 282 kts 30°
2026-04-28 11:21 44.05302 -69.89737 22826 ft 278 kts 30°
2026-04-28 11:21 44.06955 -69.88292 22511 ft 286 kts 30°
2026-04-28 11:21 44.08679 -69.86786 22181 ft 299 kts 30°
2026-04-28 11:21 44.10438 -69.85243 21809 ft 296 kts 30°
2026-04-28 11:22 44.12160 -69.83731 21462 ft 290 kts 30°
2026-04-28 11:22 44.13856 -69.82241 21128 ft 287 kts 31°
2026-04-28 11:22 44.15535 -69.80765 20818 ft 284 kts 31°
2026-04-28 11:22 44.17196 -69.79304 20484 ft 282 kts 31°
2026-04-28 11:23 44.18879 -69.77825 20175 ft 291 kts 31°
2026-04-28 11:23 44.20629 -69.76285 19840 ft 303 kts 31°
2026-04-28 11:23 44.22404 -69.74721 19469 ft 299 kts 31°
2026-04-28 11:23 44.24160 -69.73174 19128 ft 296 kts 32°
2026-04-28 11:24 44.25894 -69.71643 18800 ft 295 kts 32°
2026-04-28 11:24 44.27625 -69.70114 18423 ft 294 kts 32°
2026-04-28 11:24 44.29345 -69.68593 17994 ft 294 kts 32°
2026-04-28 11:24 44.31097 -69.67044 17463 ft 298 kts 32°
2026-04-28 11:25 44.32848 -69.65495 17076 ft 297 kts 32°
2026-04-28 11:25 44.34586 -69.63955 16736 ft 295 kts 32°
2026-04-28 11:25 44.36308 -69.62429 16400 ft 293 kts 32°
2026-04-28 11:25 44.38026 -69.60905 16083 ft 292 kts 32°
2026-04-28 11:26 44.39736 -69.59388 15745 ft 290 kts 32°
2026-04-28 11:26 44.41439 -69.57876 15428 ft 289 kts 32°
2026-04-28 11:26 44.43113 -69.56389 15114 ft 288 kts 32°
2026-04-28 11:26 44.44805 -69.54885 14798 ft 288 kts 32°
2026-04-28 11:27 44.46441 -69.53277 14459 ft 288 kts 44°
2026-04-28 11:27 44.47556 -69.50949 14062 ft 293 kts 65°
2026-04-28 11:27 44.48019 -69.48136 13644 ft 298 kts 79°
2026-04-28 11:27 44.48278 -69.45247 13256 ft 299 kts 81°
2026-04-28 11:28 44.48517 -69.42362 12934 ft 298 kts 81°
2026-04-28 11:28 44.48752 -69.39487 12609 ft 297 kts 81°
2026-04-28 11:28 44.48988 -69.36629 12317 ft 296 kts 81°
2026-04-28 11:28 44.49226 -69.33770 12009 ft 295 kts 81°
2026-04-28 11:29 44.49466 -69.30924 11703 ft 294 kts 81°
2026-04-28 11:29 44.49706 -69.28079 11394 ft 294 kts 81°
2026-04-28 11:29 44.49947 -69.25237 11089 ft 293 kts 81°
2026-04-28 11:29 44.50187 -69.22400 10777 ft 294 kts 81°
2026-04-28 11:30 44.50427 -69.19560 10466 ft 294 kts 82°
2026-04-28 11:30 44.50903 -69.13926 10065 ft 286 kts 82°
2026-04-28 11:30 44.51133 -69.11180 9942 ft 280 kts 82°
2026-04-28 11:31 44.51360 -69.08473 9548 ft 280 kts 82°
2026-04-28 11:31 44.51581 -69.05818 9256 ft 270 kts 82°
2026-04-28 11:31 44.51796 -69.03244 8957 ft 262 kts 82°
2026-04-28 11:31 44.52002 -69.00758 8671 ft 253 kts 82°
2026-04-28 11:32 44.52202 -68.98344 8408 ft 245 kts 82°
2026-04-28 11:32 44.52395 -68.96007 8153 ft 238 kts 82°
2026-04-28 11:32 44.52582 -68.93743 7916 ft 230 kts 81°
2026-04-28 11:32 44.52762 -68.91557 7689 ft 223 kts 81°
2026-04-28 11:33 44.52935 -68.89460 7501 ft 211 kts 81°
2026-04-28 11:33 44.53098 -68.87463 7269 ft 201 kts 81°
2026-04-28 11:33 44.53257 -68.85535 7072 ft 199 kts 81°
2026-04-28 11:33 44.53412 -68.83647 6881 ft 196 kts 81°
2026-04-28 11:34 44.53566 -68.81761 6661 ft 193 kts 81°
2026-04-28 11:34 44.53718 -68.79899 6466 ft 191 kts 81°
2026-04-28 11:34 44.53867 -68.78070 6256 ft 189 kts 81°
2026-04-28 11:34 44.54016 -68.76237 6072 ft 190 kts 81°
2026-04-28 11:35 44.54167 -68.74377 5856 ft 193 kts 81°
2026-04-28 11:35 44.54319 -68.72489 5662 ft 196 kts 81°
2026-04-28 11:35 44.54471 -68.70591 5449 ft 196 kts 81°
2026-04-28 11:35 44.54638 -68.68693 5223 ft 196 kts 76°
2026-04-28 11:36 44.55301 -68.67082 5010 ft 192 kts 43°
2026-04-28 11:36 44.56249 -68.65833 4810 ft 183 kts 45°
2026-04-28 11:36 44.57131 -68.64619 4619 ft 174 kts 45°
2026-04-28 11:36 44.57984 -68.63447 4549 ft 171 kts 45°
2026-04-28 11:37 44.58834 -68.62280 4476 ft 171 kts 45°
2026-04-28 11:37 44.59689 -68.61109 4391 ft 173 kts 45°
2026-04-28 11:37 44.60550 -68.59930 4322 ft 173 kts 45°
2026-04-28 11:37 44.61511 -68.58920 4218 ft 175 kts 21°
2026-04-28 11:38 44.62704 -68.58648 4159 ft 176 kts 359°
2026-04-28 11:38 44.63905 -68.59028 4020 ft 182 kts 335°
2026-04-28 11:38 44.64891 -68.60193 3865 ft 187 kts 319°
2026-04-28 11:38 44.65866 -68.61392 3639 ft 185 kts 321°
2026-04-28 11:39 44.66790 -68.62586 3476 ft 175 kts 320°
2026-04-28 11:39 44.67650 -68.63752 3261 ft 169 kts 319°
2026-04-28 11:39 44.68468 -68.64944 3091 ft 171 kts 314°
2026-04-28 11:39 44.69269 -68.66151 2940 ft 167 kts 316°
2026-04-28 11:40 44.70060 -68.67307 2764 ft 160 kts 316°
2026-04-28 11:40 44.70818 -68.68411 2653 ft 153 kts 319°
2026-04-28 11:40 44.71565 -68.69481 2534 ft 156 kts 316°
2026-04-28 11:40 44.72317 -68.70580 2325 ft 156 kts 317°
2026-04-28 11:41 44.73061 -68.71661 2129 ft 154 kts 314°
2026-04-28 11:41 44.73801 -68.72741 1908 ft 153 kts 315°
2026-04-28 11:41 44.74542 -68.73816 1698 ft 153 kts 315°
2026-04-28 11:41 44.75281 -68.74889 1482 ft 152 kts 315°
2026-04-28 11:42 44.76016 -68.75955 1273 ft 151 kts 314°
2026-04-28 11:42 44.76748 -68.77020 1057 ft 151 kts 314°
2026-04-28 11:42 44.77472 -68.78069 835 ft 148 kts 314°
2026-04-28 11:42 44.78172 -68.79086 639 ft 146 kts 314°
2026-04-28 11:43 44.78885 -68.80117 415 ft 147 kts 314°
2026-04-28 11:43 44.79595 -68.81150 226 ft 146 kts 314°
2026-04-28 11:43 44.80266 -68.82119 168 ft 119 kts 314°
2026-04-28 11:43 44.80698 -68.82740 179 ft 59 kts 315°
2026-04-28 11:44 44.80891 -68.83021 183 ft 36 kts 314°
2026-04-28 11:44 44.81042 -68.83241 182 ft 19 kts 314°
2026-04-28 11:44 44.81138 -68.83324 182 ft 15 kts
2026-04-28 11:44 44.81215 -68.83242 182 ft 14 kts 43°
2026-04-28 11:45 44.81277 -68.83158 192 ft 8 kts 45°
2026-04-28 11:45 44.81301 -68.83124 205 ft 3 kts 46°
2026-04-28 11:45 44.81309 -68.83113 206 ft 1 kts 46°
2026-04-28 11:45 44.81313 -68.83106 197 ft 1 kts 46°
2026-04-28 11:46 44.81317 -68.83098 198 ft 1 kts 55°
2026-04-28 11:46 44.81319 -68.83089 198 ft 1 kts 74°
2026-04-28 11:46 44.81320 -68.83073 203 ft 3 kts 89°
2026-04-28 11:46 44.81310 -68.83034 197 ft 6 kts 123°
2026-04-28 11:47 44.81274 -68.82974 195 ft 10 kts 134°
2026-04-28 11:47 44.81217 -68.82894 200 ft 13 kts 135°
2026-04-28 11:47 44.81148 -68.82795 195 ft 15 kts 133°
2026-04-28 11:47 44.81090 -68.82706 191 ft 10 kts 132°
2026-04-28 11:48 44.81049 -68.82644 184 ft 8 kts 134°
2026-04-28 11:48 44.81003 -68.82580 182 ft 10 kts 136°
2026-04-28 11:48 44.80947 -68.82503 179 ft 12 kts 135°
2026-04-28 11:48 44.80883 -68.82411 176 ft 14 kts 134°
2026-04-28 11:49 44.80810 -68.82304 172 ft 16 kts 134°
2026-04-28 11:49 44.80727 -68.82187 168 ft 18 kts 134°
2026-04-28 11:49 44.80638 -68.82055 164 ft 19 kts 133°
2026-04-28 11:49 44.80574 -68.81959 161 ft 10 kts 133°
2026-04-28 11:50 44.80526 -68.81885 159 ft 11 kts 109°
2026-04-28 11:50 44.80557 -68.81799 162 ft 10 kts 45°
2026-04-28 11:50 44.80606 -68.81727 172 ft 10 kts 52°
2026-04-28 11:50 44.80633 -68.81643 174 ft 8 kts 63°
2026-04-28 11:51 44.80655 -68.81617 174 ft 0 kts 25°
2026-04-28 11:51 44.80657 -68.81616 174 ft 1 kts 24°
2026-04-28 11:51 44.80670 -68.81610 174 ft 1 kts 16°
2026-04-28 11:51 44.80677 -68.81607 174 ft 1 kts 14°
2026-04-28 11:52 44.80682 -68.81606 174 ft 0 kts 14°